Talkeetna, AK

9:06 AM AKDT on June 29, 2017 (GMT -0800)
Talkeetna

Weather History for PATK - January, 2013

Change the Weather History Date:

Friday, January 4, 2013

  Actual Average Record
Temperature  
Mean Temperature 30 °F -  
Max Temperature 34 °F 16 °F 40 °F (1960)
Min Temperature 26 °F -4 °F -42 °F (1975)
Degree Days  
Heating Degree Days 35    
Moisture  
Dew Point 20 °F    
Average Humidity 71    
Maximum Humidity 93    
Minimum Humidity 48    
Precipitation  
Precipitation 0.01 in - - ()
Sea Level Pressure  
Sea Level Pressure 29.78 in    
Wind  
Wind Speed 4 mph (NNE)    
Max Wind Speed 10 mph    
Max Gust Speed -    
Visibility 8 miles    
Events Snow    
Averages and records for this station are not official NWS values.
T = Trace of Precipitation, MM = Missing Value Source: NWS Daily Summary

Daily Weather History Graph

Daily Weather History Graph

Search for Another Location

Airport or City:

Trip Planner

Search our weather history database for the weather conditions in past years. The results will help you decide how hot, cold, wet, or windy it might be!

Date:

Astronomy

Jan. 04, 2013 Rise Set
Actual Time 10:23 AM AKST 3:47 PM AKST
Civil Twilight 9:19 AM AKST 4:52 PM AKST
Nautical Twilight 8:17 AM AKST 5:53 PM AKST
Astronomical Twilight 7:22 AM AKST 6:48 PM AKST
Moon 12:59 AM AKST (1/4) 11:36 AM AKST (1/4)
Length of Visible Light 7h 32m
Length of Day
5h 24m
Waning Gibbous, 53% of the Moon is Illuminated
Jan 4
Waning Gibbous
Jan 4
Last Quarter
Jan 11
New
Jan 18
First Quarter
Jan 26
Full

Hourly Weather History & Observations

Time (AKST) Temp. Windchill Dew Point Humidity Pressure Visibility Wind Dir Wind Speed Gust Speed Precip Events Conditions
12:53 AM 34.0 °F 28.8 °F 16.0 °F 48% 29.60 in 10.0 mi North 5.8 mph - N/A   Overcast
1:53 AM 33.1 °F 30.0 °F 16.0 °F 50% 29.62 in 10.0 mi NE 3.5 mph - N/A   Overcast
3:53 AM 30.0 °F - 21.0 °F 69% 29.66 in 10.0 mi Calm Calm - N/A   Overcast
4:53 AM 28.9 °F - 19.9 °F 69% 29.68 in 10.0 mi Calm Calm - N/A   Overcast
5:53 AM 27.0 °F - 19.9 °F 75% 29.70 in 10.0 mi Calm Calm - N/A   Overcast
6:53 AM 27.0 °F - 21.0 °F 78% 29.73 in 10.0 mi Calm Calm - N/A   Overcast
7:53 AM 28.0 °F - 21.0 °F 75% 29.73 in 10.0 mi Calm Calm - N/A   Overcast
8:53 AM 28.0 °F - 21.0 °F 75% 29.75 in 10.0 mi Calm Calm - N/A   Overcast
9:53 AM 28.9 °F 23.9 °F 17.1 °F 61% 29.76 in 10.0 mi NNE 4.6 mph - N/A   Mostly Cloudy
10:53 AM 28.0 °F - 17.1 °F 63% 29.79 in 10.0 mi Calm Calm - N/A   Overcast
11:36 AM 28.4 °F 24.6 °F 19.4 °F 69% 29.79 in 3.0 mi NNE 3.5 mph - 0.00 in Snow Light Snow
11:53 AM 28.0 °F 21.7 °F 21.0 °F 75% 29.82 in 2.0 mi NE 5.8 mph - 0.00 in Snow Light Snow
12:00 PM 28.4 °F 22.2 °F 23.0 °F 80% 29.80 in 1.0 mi NE 5.8 mph - 0.00 in Snow Light Snow
12:53 PM 27.0 °F 18.7 °F 24.1 °F 89% 29.84 in 1.0 mi NE 8.1 mph - 0.01 in Snow Light Snow
1:02 PM 26.6 °F 18.2 °F 24.8 °F 93% 29.82 in 3.0 mi NNE 8.1 mph - 0.00 in Snow Light Snow
1:29 PM 28.4 °F 22.2 °F 24.8 °F 86% 29.82 in 3.0 mi North 5.8 mph - 0.00 in Snow Light Snow
1:36 PM 28.4 °F 23.3 °F 23.0 °F 80% 29.82 in 10.0 mi North 4.6 mph - 0.00 in   Mostly Cloudy
1:53 PM 28.9 °F 21.1 °F 23.0 °F 78% 29.84 in 10.0 mi NNE 8.1 mph - 0.00 in   Mostly Cloudy
2:43 PM 28.4 °F 22.2 °F 24.8 °F 86% 29.83 in 10.0 mi North 5.8 mph - N/A   Overcast
2:53 PM 28.9 °F 23.9 °F 23.0 °F 78% 29.86 in 10.0 mi North 4.6 mph - N/A   Overcast
3:25 PM 30.2 °F 24.3 °F 23.0 °F 75% 29.84 in 10.0 mi North 5.8 mph - N/A   Overcast
3:53 PM 28.9 °F 23.9 °F 24.1 °F 82% 29.87 in 10.0 mi NNE 4.6 mph - N/A   Mostly Cloudy
4:53 PM 28.9 °F 23.9 °F 19.9 °F 69% 29.87 in 10.0 mi North 4.6 mph - N/A   Mostly Cloudy
5:53 PM 28.0 °F 20.8 °F 21.0 °F 75% 29.87 in 10.0 mi North 6.9 mph - N/A   Overcast
6:53 PM 28.9 °F 22.8 °F 21.0 °F 72% 29.85 in 10.0 mi NNE 5.8 mph - N/A   Scattered Clouds
7:53 PM 28.0 °F 20.0 °F 17.1 °F 63% 29.85 in 10.0 mi North 8.1 mph - N/A   Clear
8:53 PM 28.0 °F 18.6 °F 16.0 °F 61% 29.83 in 10.0 mi NNE 10.4 mph - N/A   Clear
9:53 PM 28.9 °F 20.4 °F 17.1 °F 61% 29.83 in 10.0 mi NNE 9.2 mph - N/A   Mostly Cloudy
10:53 PM 28.0 °F 20.8 °F 17.1 °F 63% 29.81 in 10.0 mi North 6.9 mph - N/A   Clear
11:53 PM 28.0 °F 20.8 °F 18.0 °F 66% 29.80 in 10.0 mi North 6.9 mph - N/A   Scattered Clouds